Regional Weather Roundup
Issued by NWS

Home | Current Version | Previous Version | Graphics & Text | Print | Product List | Glossary On
Versions: 1 2 3 4 5 6 7 8 9 10 11 12 13 14 15 16 17 18 19 20 21 22 23 24 25 26 27 28 29 30 31 32 33 34 35 36 37 38 39 40 41 42 43 44 45 46 47 48 49 50
000
ASUS44 KMEG 220210
RWRTN
TENNESSEE HOURLY STATE WEATHER ROUNDUP
NATIONAL WEATHER SERVICE MEMPHIS TN
800 PM CST FRI NOV 21 2014

TNZ002-004-019-021-049-052-054-088>092-220300-
WEST TENNESSEE

CITY           SKY/WX    TMP DP  RH WIND       PRES   REMARKS
MEMPHIS INTL   CLOUDY    50  42  74 E6        30.28F
NWS MEMPHIS      N/A     50 N/A N/A MISG        N/A
JACKSON        PTCLDY    47  33  58 CALM      30.31F
DYERSBURG      CLOUDY    46  28  49 E3        30.32S
UNION CITY     CLOUDY    43  39  87 CALM      30.31S
PARIS          CLOUDY    48  28  46 E6        30.33F
HUNTINGDON     CLOUDY    47  27  46 E6        30.32F
LEXINGTON      CLOUDY    46  36  66 E3        30.32F
SAVANNAH       CLOUDY    54  37  54 SE5       30.33S
$$

TNZ008-025-027-028-033-062-065-066-220300-
NORTH MIDDLE TENNESSEE

CITY           SKY/WX    TMP DP  RH WIND       PRES   REMARKS
NASHVILLE      CLOUDY    46  26  45 E3        30.38R
CLARKSVILLE    CLOUDY    47  22  37 SE6       30.36S
SMYRNA         MOCLDY    41  30  65 CALM      30.40R
COOKEVILLE     CLEAR     30  25  80 SE3       30.38F
CROSSVILLE     CLEAR     36  17  46 CALM      30.40S
$$

TNZ061-075-076-078-094-096-097-220300-
SOUTH MIDDLE TENNESSEE

CITY           SKY/WX    TMP DP  RH WIND       PRES   REMARKS
FAYETTEVILLE   CLEAR     46  34  61 MISG      30.38R
TULLAHOMA      CLEAR     39  27  60 CALM      30.39R
WINCHESTER     CLEAR     45  28  53 SE8       30.39R
MCMINNVILLE    CLEAR     37  28  70 CALM      30.38F
COLUMBIA       CLEAR     45  34  65 SE6       30.34S
SHELBYVILLE    CLEAR     45  28  53 E6        30.38S
$$

TNZ017-018-042-046-047-220300-
NORTHEAST TENNESSEE

CITY           SKY/WX    TMP DP  RH WIND       PRES   REMARKS
TRI CITIES     CLEAR     28  16  60 N3        30.44S
ELIZABETHTON   CLEAR     27  12  54 CALM      30.44S
$$

TNZ012-013-036-069-073-074-220300-
CENTRAL EAST TENNESSEE

CITY           SKY/WX    TMP DP  RH WIND       PRES   REMARKS
KNOXVILLE      PTCLDY    39  15  37 N3        30.42R
OAK RIDGE      CLEAR     34  22  61 CALM      30.45R
GATLINBURG     CLEAR     28  19  69 CALM      30.42S
MORRISTOWN     CLEAR     34  18  51 E6        30.42S WCI  29
$$

TNZ083-085-099-220300-
SOUTHEAST TENNESSEE

CITY           SKY/WX    TMP DP  RH WIND       PRES   REMARKS
CHATTANOOGA    PTCLDY    41  29  62 CALM      30.43R
$$

SKY/WX REPORTED AS FAIR MEANS FEW OR NO CLOUDS BELOW
12 THOUSAND FEET.



USA.gov is the U.S. government's official web portal to all federal, state and local government web resources and services.